This is the latest recevied weather packets stored in our database for station/object KC8BSD. If no packets are shown the sender has not sent any weather packets the latest 10 day(s).
| Time | Temp. | Humidity | Pressure | Rain* | Wind** | Luminosity | Snow |
|---|---|---|---|---|---|---|---|
| 1777520234 | 6.11° C | 93% | 1015.4 hPa | 1.78 mm | - | 0 W/m² | - |
| 1777519933 | 6.11° C | 93% | 1015.3 hPa | 1.27 mm | - | 0 W/m² | - |
| 1777519629 | 6.11° C | 93% | 1015.3 hPa | 3.05 mm | - | 0 W/m² | - |
| 1777519325 | 6.11° C | 93% | 1015.6 hPa | 1.78 mm | - | 0 W/m² | - |
| 1777519022 | 6.11° C | 93% | 1015.3 hPa | 0 mm | - | 0 W/m² | - |
| 1777518718 | 6.67° C | 93% | 1015.4 hPa | 0 mm | - | 0 W/m² | - |
| 1777518415 | 6.11° C | 93% | 1015.2 hPa | 0 mm | - | 0 W/m² | - |
| 1777518110 | 6.11° C | 93% | 1015.2 hPa | 0 mm | - | 0 W/m² | - |
| 1777517806 | 6.11° C | 93% | 1015.2 hPa | 1.27 mm | - | 0 W/m² | - |
| 1777517503 | 6.67° C | 93% | 1015.6 hPa | 1.27 mm | - | 0 W/m² | - |
| 1777517201 | 6.67° C | 94% | 1015.2 hPa | 0 mm | - | 0 W/m² | - |
| 1777516899 | 6.67° C | 94% | 1015.3 hPa | 0 mm | - | 0 W/m² | - |
| 1777516596 | 6.67° C | 93% | 1015.2 hPa | 0 mm | - | 0 W/m² | - |
| 1777516292 | 6.67° C | 93% | 1015.2 hPa | 0 mm | - | 0 W/m² | - |
| 1777515988 | 6.67° C | 93% | 1015.2 hPa | 0 mm | - | 0 W/m² | - |
| 1777515684 | 6.67° C | 93% | 1015.2 hPa | 0 mm | - | 0 W/m² | - |
| 1777515382 | 6.67° C | 93% | 1015.1 hPa | 1.78 mm | - | 0 W/m² | - |
| 1777515078 | 6.67° C | 93% | 1015.1 hPa | 1.78 mm | - | 0 W/m² | - |
| 1777514775 | 6.67° C | 93% | 1015.1 hPa | 0 mm | - | 0 W/m² | - |
| 1777514471 | 6.67° C | 92% | 1015 hPa | 0 mm | - | 0 W/m² | - |
| 1777514169 | 6.67° C | 92% | 1015.1 hPa | 0 mm | - | 0 W/m² | - |
| 1777513865 | 6.67° C | 92% | 1014.9 hPa | 0 mm | - | 0 W/m² | - |
| 1777513562 | 6.67° C | 92% | 1014.7 hPa | 1.27 mm | - | 0 W/m² | - |
| 1777513259 | 6.67° C | 92% | 1014.7 hPa | 1.27 mm | - | 0 W/m² | - |
| 1777512955 | 6.67° C | 92% | 1014.5 hPa | 1.78 mm | - | 0 W/m² | - |
* Rain latest hour (hover to see other rain measurements)
** Current wind speed in m/s (hover to see current wind gust speed)